Retour au catalogue

BREEZE-M DEB

LostHEO
NORAD 38641·DEBRIS·🇷🇺 Russia

Lancé Mar 14, 2008 depuis Baikonur Cosmodrome

Loading…

Prochains Passages (prochaines 24 heures)

TLE

PériméSource: Space-Track

Époque: Jul 24, 2015, 03:42 UTC

1 38641U 08011CQ  15205.15469590 -.00000046 +00000-0 +00000-0 0  9995
2 38641 049.4668 008.0367 6265839 039.8446 359.9521 03.02792114047417

Suivez BREEZE-M DEB en temps réel avec AllMySat

Download on the App Store